Location: Honolulu
(21.3069°N, 157.8583°W)
Time: 07:16:30
(UTC-10:00)

Vanguard 2 Rocket - Pass Details

Date: 16 May 2026
Orbit: 553 x 3286 km, 32.9° (Epoch: 10 June)

Event Time Altitude Azimuth Distance (km) Brightness Sun altitude
Rises 19:39:52 0° 285° (WNW) 7,233 13.6 -8.7°
Reaches altitude 10° 19:46:19 10° 274° (W) 6,046 12.3 -10.1°
Maximum altitude 19:59:27 25° 228° (SW) 4,188 10.5 -12.8°
Drops below altitude 10° 20:09:19 10° 179° (S) 4,415 10.1 -14.8°
Enters shadow 20:13:03 - 165° (SSE) 4,978 10.3 -15.6°
